Location: Geremba
(10.4250°N, 67.2394°W)
Time: 20:24:04
(UTC+00:00)

ARIANE 6 FM1 Upper Stage - Visible Passes

Search period start: 19 January 2026 00:00
Search period end: 29 January 2026 00:00
Orbit: 522 x 610 km, 62.0° (Epoch: 19 January)

Date Brightness Start Highest point End Pass type
(mag) Time Alt. Az. Time Alt. Az. Time Alt. Az.
19 Jan 2.5 10:06:35 10° NNW 10:10:35 75° WSW 10:14:43 10° SSE visible
20 Jan 3.1 10:07:30 13° NW 10:10:44 40° WSW 10:14:38 10° S visible
21 Jan 5.4 08:32:36 14° ENE 08:32:36 14° ENE 08:34:19 10° E visible
21 Jan 3.9 10:08:41 15° WNW 10:10:52 23° WSW 10:14:11 10° SSW visible
22 Jan 5.2 08:33:46 19° E 08:33:46 19° E 08:35:35 10° ESE visible
22 Jan 4.5 10:09:51 12° W 10:11:00 13° WSW 10:13:04 10° SW visible
23 Jan 5.2 08:34:56 19° SE 08:34:56 19° SE 08:36:18 10° SE visible
24 Jan 5.4 08:36:01 14° SSE 08:36:01 14° SSE 08:36:39 10° SSE visible
